TimeCST,TemperatureF,Dew PointF,Humidity,Sea Level PressureIn,VisibilityMPH,Wind Direction,Wind SpeedMPH,Gust SpeedMPH,PrecipitationIn,Events,Conditions,WindDirDegrees,DateUTC
12:15 AM,59.0,55.4,88,29.77,10.0,South,6.9,-,N/A,,Overcast,190,2012-12-17 06:15:00
12:35 AM,59.0,55.4,88,29.76,4.0,South,6.9,-,N/A,Rain,Light Rain,190,2012-12-17 06:35:00
12:55 AM,57.2,55.4,94,29.77,4.0,South,6.9,-,0.01,Rain,Light Rain,190,2012-12-17 06:55:00
1:15 AM,57.2,55.4,94,29.77,4.0,South,6.9,-,N/A,,Overcast,190,2012-12-17 07:15:00
1:35 AM,57.2,55.4,94,29.76,2.0,South,5.8,-,0.01,Rain,Light Rain,190,2012-12-17 07:35:00
1:55 AM,57.2,55.4,94,29.76,2.5,SSW,6.9,-,0.02,Rain,Light Rain,200,2012-12-17 07:55:00
2:15 AM,57.2,55.4,94,29.76,3.0,SSW,6.9,-,0.01,Rain,Light Rain,200,2012-12-17 08:15:00
2:35 AM,57.2,55.4,94,29.76,3.0,South,6.9,-,0.02,Rain,Light Rain,190,2012-12-17 08:35:00
2:55 AM,57.2,55.4,94,29.76,10.0,SSW,5.8,-,0.02,,Overcast,200,2012-12-17 08:55:00
3:15 AM,57.2,55.4,94,29.75,4.0,South,6.9,-,N/A,Rain,Light Rain,180,2012-12-17 09:15:00
3:35 AM,57.2,55.4,94,29.74,10.0,South,4.6,-,N/A,,Overcast,190,2012-12-17 09:35:00
3:55 AM,57.2,55.4,94,29.74,10.0,South,4.6,-,N/A,,Overcast,180,2012-12-17 09:55:00
4:15 AM,57.2,55.4,94,29.74,10.0,SSW,3.5,-,N/A,,Overcast,210,2012-12-17 10:15:00
4:35 AM,57.2,55.4,94,29.74,10.0,SW,4.6,-,N/A,,Overcast,220,2012-12-17 10:35:00
4:55 AM,57.2,55.4,94,29.74,10.0,SW,5.8,-,N/A,,Overcast,220,2012-12-17 10:55:00
5:15 AM,57.2,55.4,94,29.73,10.0,South,4.6,-,N/A,,Overcast,180,2012-12-17 11:15:00
5:35 AM,57.2,55.4,94,29.73,10.0,SSW,4.6,-,N/A,,Overcast,200,2012-12-17 11:35:00
5:55 AM,57.2,55.4,94,29.74,10.0,Calm,Calm,-,N/A,,Overcast,0,2012-12-17 11:55:00
6:15 AM,57.2,55.4,94,29.73,10.0,South,3.5,-,N/A,,Overcast,190,2012-12-17 12:15:00
6:35 AM,57.2,53.6,88,29.73,10.0,South,4.6,-,N/A,,Overcast,180,2012-12-17 12:35:00
6:55 AM,57.2,53.6,88,29.73,10.0,SW,4.6,-,N/A,,Overcast,220,2012-12-17 12:55:00
7:15 AM,57.2,53.6,88,29.73,10.0,SSW,4.6,-,N/A,,Overcast,210,2012-12-17 13:15:00
7:55 AM,55.4,53.6,94,29.73,10.0,SSW,6.9,-,N/A,,Scattered Clouds,210,2012-12-17 13:55:00
8:15 AM,57.2,53.6,88,29.74,10.0,SSW,5.8,-,N/A,,Mostly Cloudy,210,2012-12-17 14:15:00
8:35 AM,57.2,53.6,88,29.72,10.0,SSW,4.6,-,N/A,,Overcast,210,2012-12-17 14:35:00
8:55 AM,57.2,53.6,88,29.73,10.0,SSW,8.1,-,N/A,,Overcast,200,2012-12-17 14:55:00
9:15 AM,57.2,55.4,94,29.72,10.0,South,9.2,-,N/A,,Overcast,190,2012-12-17 15:15:00
9:35 AM,59.0,53.6,82,29.73,10.0,SW,8.1,-,N/A,,Overcast,230,2012-12-17 15:35:00
9:55 AM,59.0,53.6,82,29.73,10.0,SSW,9.2,-,N/A,,Overcast,200,2012-12-17 15:55:00
10:15 AM,59.0,53.6,82,29.72,10.0,South,9.2,16.1,N/A,,Overcast,190,2012-12-17 16:15:00
10:35 AM,60.8,53.6,77,29.72,10.0,SW,6.9,17.3,N/A,,Overcast,220,2012-12-17 16:35:00
10:55 AM,59.0,53.6,82,29.71,10.0,SSW,11.5,18.4,N/A,,Mostly Cloudy,210,2012-12-17 16:55:00
11:15 AM,62.6,53.6,72,29.70,10.0,SW,13.8,17.3,N/A,,Overcast,230,2012-12-17 17:15:00
11:55 AM,60.8,51.8,72,29.69,10.0,SW,8.1,-,N/A,,Mostly Cloudy,220,2012-12-17 17:55:00
12:15 PM,62.6,51.8,68,29.68,10.0,SW,10.4,-,N/A,,Mostly Cloudy,230,2012-12-17 18:15:00
12:35 PM,62.6,51.8,68,29.67,10.0,WSW,6.9,-,N/A,,Mostly Cloudy,240,2012-12-17 18:35:00
12:55 PM,62.6,50.0,63,29.67,10.0,SW,11.5,19.6,N/A,,Mostly Cloudy,230,2012-12-17 18:55:00
1:15 PM,64.4,51.8,64,29.66,10.0,WSW,10.4,-,N/A,,Mostly Cloudy,250,2012-12-17 19:15:00
1:35 PM,64.4,50.0,59,29.65,10.0,SW,13.8,-,N/A,,Scattered Clouds,230,2012-12-17 19:35:00
1:55 PM,64.4,50.0,59,29.64,10.0,SW,11.5,19.6,N/A,,Scattered Clouds,230,2012-12-17 19:55:00
2:15 PM,62.6,50.0,63,29.64,10.0,WSW,9.2,17.3,N/A,,Mostly Cloudy,250,2012-12-17 20:15:00
2:35 PM,62.6,50.0,63,29.64,10.0,West,9.2,-,N/A,,Scattered Clouds,260,2012-12-17 20:35:00
2:55 PM,64.4,50.0,59,29.64,10.0,WSW,11.5,-,N/A,,Clear,250,2012-12-17 20:55:00
3:15 PM,64.4,48.2,56,29.64,10.0,WSW,15.0,20.7,N/A,,Clear,250,2012-12-17 21:15:00
3:35 PM,62.6,48.2,59,29.65,10.0,WSW,10.4,17.3,N/A,,Clear,240,2012-12-17 21:35:00
3:55 PM,62.6,46.4,55,29.66,10.0,West,11.5,17.3,N/A,,Clear,260,2012-12-17 21:55:00
6:15 PM,53.6,46.4,77,29.74,10.0,NW,10.4,20.7,N/A,,Clear,310,2012-12-18 00:15:00
6:35 PM,50.0,44.6,82,29.75,10.0,NW,11.5,-,N/A,,Clear,320,2012-12-18 00:35:00
6:55 PM,48.2,42.8,82,29.75,10.0,NW,12.7,-,N/A,,Partly Cloudy,310,2012-12-18 00:55:00
7:15 PM,48.2,41.0,76,29.76,10.0,NW,12.7,-,N/A,,Scattered Clouds,310,2012-12-18 01:15:00
7:35 PM,46.4,41.0,81,29.78,10.0,NW,8.1,-,N/A,,Overcast,310,2012-12-18 01:35:00
7:55 PM,46.4,41.0,81,29.79,10.0,NW,8.1,-,N/A,,Overcast,310,2012-12-18 01:55:00
8:15 PM,46.4,39.2,76,29.80,10.0,NW,10.4,-,N/A,,Overcast,310,2012-12-18 02:15:00
8:35 PM,44.6,39.2,81,29.80,10.0,WNW,6.9,-,N/A,,Scattered Clouds,300,2012-12-18 02:35:00
8:55 PM,44.6,39.2,81,29.81,10.0,WNW,6.9,-,N/A,,Clear,300,2012-12-18 02:55:00
9:15 PM,42.8,37.4,81,29.81,10.0,WNW,6.9,-,N/A,,Clear,300,2012-12-18 03:15:00
9:55 PM,41.0,37.4,87,29.83,10.0,West,5.8,-,N/A,,Clear,280,2012-12-18 03:55:00
10:15 PM,41.0,37.4,87,29.84,10.0,West,5.8,-,N/A,,Clear,280,2012-12-18 04:15:00
10:35 PM,41.0,37.4,87,29.85,10.0,WNW,3.5,-,N/A,,Clear,290,2012-12-18 04:35:00
10:55 PM,39.2,37.4,93,29.85,10.0,WNW,3.5,-,N/A,,Clear,290,2012-12-18 04:55:00
11:15 PM,39.2,37.4,93,29.86,7.0,West,3.5,-,N/A,,Clear,270,2012-12-18 05:15:00
11:35 PM,39.2,37.4,93,29.86,7.0,West,3.5,-,N/A,,Clear,270,2012-12-18 05:35:00
11:55 PM,37.4,35.6,93,29.86,5.0,Calm,Calm,-,N/A,,Clear,0,2012-12-18 05:55:00